Regional Weather Roundup
Issued by NWS

Home | Current Version | Previous Version | Graphics & Text | Print | Product List | Glossary On
Versions: 1 2 3 4 5 6 7 8 9 10 11 12 13 14 15 16 17 18 19 20 21 22 23 24 25 26 27
000
ASUS45 KCYS 240110
RWRWY

WYOMING REGIONAL WEATHER ROUNDUP
NATIONAL WEATHER SERVICE CHEYENNE WY
700 PM MDT WED MAY 23 2018

NOTE:  "FAIR" INDICATES FEW OR NO CLOUDS BELOW 12,000 FEET
WITH NO SIGNIFICANT WEATHER AND/OR OBSTRUCTIONS TO VISIBILITY.

WYZ001-240200-
YELLOWSTONE NATIONAL PARK

CITY           SKY/WX    TMP DP  RH WIND       PRES   REMARKS
LK YELLOWSTONE   N/A     39  37  92 CALM      30.11S
W YELLOWSTONE  NOT AVBL

$$
WYZ002>013-054>058-071-098>099-240200-
NORTHERN WYOMING

CITY           SKY/WX    TMP DP  RH WIND       PRES   REMARKS
JACKSON        CLOUDY    50  44  80 W3        30.06S
CODY           PTSUNNY   57  41  55 VRB6      29.94S
GREYBULL       CLOUDY    64  51  62 N5        29.87S
WORLAND        FAIR      64  53  67 N10       29.88R
SHERIDAN       PTSUNNY   68  56  65 E9        29.82F THUNDER
BUFFALO        FAIR      62  40  44 W22G36    29.88F
GILLETTE       FAIR      61  48  62 SE16      29.90F
NEWCASTLE      FAIR      68  52  56 SW8       29.97R

$$
WYZ014>020-022>026-101>103-240200-
CENTRAL WYOMING

CITY           SKY/WX    TMP DP  RH WIND       PRES   REMARKS
BIG PINEY      FAIR      60  38  43 W16       30.07S
PINEDALE       FAIR      52  41  66 N7        30.09S
DUBOIS         DRIZZLE   46  41  81 NW13      30.06R
LANDER         FAIR      60  46  59 SE8       29.94S
RIVERTON       FAIR      63  45  51 SW8       29.95S
CASPER         FAIR      68  40  35 SW21G28   29.94F
DOUGLAS        FAIR      67  45  45 E3        29.97S

$$
WYZ021-027>030-104>119-240200-
SOUTHERN WYOMING

CITY           SKY/WX    TMP DP  RH WIND       PRES   REMARKS
EVANSTON       FAIR      59  39  47 W17       30.09R
KEMMERER       FAIR      55  37  50 W6        30.10S
FORT BRIDGER   CLOUDY    61  38  42 S12       30.12S
ROCK SPRINGS   FAIR      58  35  42 W22G31    30.10R
DIXON          FAIR      63  37  38 W10       30.08S
RAWLINS        FAIR      63  34  33 W18G25    30.07R
SARATOGA       FAIR      66  27  22 SW18G31   30.08S
LARAMIE        CLOUDY    63  36  36 S16       30.06S
CHEYENNE       FAIR      67  49  52 W3        30.01R
TORRINGTON     TSTM      61  53  75 VRB7      29.95R
PINE BLUFFS    FAIR      72  43  35 W7        29.96S

$$




USA.gov is the U.S. government's official web portal to all federal, state and local government web resources and services.